Jackson, TN

9:55 PM CDT on May 22, 2017 (GMT -0500)
McKellar-Sipes Regional

Weather History for KMKL - January, 2014

Change the Weather History Date:

Thursday, January 23, 2014

  Actual Average Record
Temperature  
Mean Temperature 18 °F 38 °F  
Max Temperature 28 °F 48 °F 73 °F (1967)
Min Temperature 8 °F 28 °F -11 °F (1963)
Degree Days  
Heating Degree Days 47 27  
Month to date heating degree days 710 621  
Since 1 July heating degree days 2267 2039  
Cooling Degree Days 0 0  
Month to date cooling degree days 0 0  
Year to date cooling degree days 0 0  
Moisture  
Dew Point 3 °F    
Average Humidity 60    
Maximum Humidity 84    
Minimum Humidity 35    
Precipitation  
Precipitation 0.00 in 0.13 in 1.35 in (1996)
Month to date precipitation 3.01 2.95  
Year to date precipitation 3.01 2.95  
Snow  
Snow 0.00 in - - ()
Month to date snowfall T  
Snow Depth 0.00 in    
Sea Level Pressure  
Sea Level Pressure 30.59 in    
Wind  
Wind Speed 12 mph (North)    
Max Wind Speed 23 mph    
Max Gust Speed 28 mph    
Visibility 10 miles    
Events      
T = Trace of Precipitation, MM = Missing Value Source: NWS Daily Summary

Daily Weather History Graph

Daily Weather History Graph

Search for Another Location

Airport or City:

Trip Planner

Search our weather history database for the weather conditions in past years. The results will help you decide how hot, cold, wet, or windy it might be!

Date:

Astronomy

Jan. 23, 2014 Rise Set
Actual Time 7:01 AM CST 5:14 PM CST
Civil Twilight 6:34 AM CST 5:41 PM CST
Nautical Twilight 6:03 AM CST 6:12 PM CST
Astronomical Twilight 5:32 AM CST 6:42 PM CST
Moon No Moon Rise 10:52 AM CST
Length of Visible Light 11h 07m
Length of Day
10h 12m
Waning Gibbous, 55% of the Moon is Illuminated
Jan 23
Waning Gibbous
Jan 23
Last Quarter
Jan 30
New
Feb 6
First Quarter
Feb 14
Full

Hourly Weather History & Observations

Time (CST) Temp. Windchill Dew Point Humidity Pressure Visibility Wind Dir Wind Speed Gust Speed Precip Events Conditions
12:53 AM 21.0 °F - 17.1 °F 85% 30.26 in 10.0 mi Calm Calm - N/A   Clear
1:53 AM 28.0 °F 21.7 °F 17.1 °F 63% 30.29 in 10.0 mi WNW 5.8 mph - N/A   Clear
2:53 AM 25.0 °F 17.1 °F 14.0 °F 63% 30.31 in 10.0 mi WNW 6.9 mph - N/A   Clear
3:53 AM 27.0 °F 18.7 °F 15.1 °F 61% 30.34 in 10.0 mi North 8.1 mph - N/A   Clear
4:53 AM 25.0 °F 12.2 °F 15.1 °F 66% 30.38 in 10.0 mi North 16.1 mph 25.3 mph N/A   Clear
5:53 AM 23.0 °F 10.6 °F 12.0 °F 63% 30.44 in 10.0 mi North 13.8 mph - N/A   Clear
6:53 AM 21.9 °F 8.2 °F 12.0 °F 66% 30.47 in 10.0 mi North 16.1 mph 23.0 mph N/A   Clear
7:53 AM 19.9 °F 5.2 °F 10.0 °F 65% 30.53 in 10.0 mi North 17.3 mph 24.2 mph N/A   Mostly Cloudy
8:36 AM 19.4 °F 3.6 °F 3.2 °F 49% 30.55 in 10.0 mi North 19.6 mph 24.2 mph N/A   Scattered Clouds
8:53 AM 18.0 °F 1.7 °F -0.0 °F 45% 30.59 in 10.0 mi North 19.6 mph - N/A   Clear
9:53 AM 17.1 °F 2.5 °F -2.9 °F 41% 30.63 in 10.0 mi North 15.0 mph - N/A   Mostly Cloudy
10:53 AM 18.0 °F 3.6 °F -0.9 °F 44% 30.66 in 10.0 mi NNW 15.0 mph - N/A   Clear
11:53 AM 18.0 °F 6.1 °F -2.0 °F 41% 30.66 in 10.0 mi North 10.4 mph - N/A   Clear
12:53 PM 19.9 °F 7.9 °F -2.0 °F 38% 30.64 in 10.0 mi NNW 11.5 mph - N/A   Clear
1:53 PM 19.9 °F 8.6 °F -2.9 °F 37% 30.65 in 10.0 mi North 10.4 mph - N/A   Clear
2:53 PM 21.9 °F 9.8 °F -2.9 °F 34% 30.65 in 10.0 mi North 12.7 mph 18.4 mph N/A   Clear
3:53 PM 19.9 °F 6.7 °F -4.0 °F 35% 30.66 in 10.0 mi North 13.8 mph - N/A   Clear
4:53 PM 19.0 °F 5.0 °F -4.0 °F 36% 30.67 in 10.0 mi North 15.0 mph - N/A   Partly Cloudy
5:53 PM 18.0 °F 3.6 °F -2.9 °F 40% 30.69 in 10.0 mi North 15.0 mph - N/A   Partly Cloudy
6:53 PM 17.1 °F 4.3 °F -2.0 °F 43% 30.72 in 10.0 mi North 11.5 mph - N/A   Clear
7:53 PM 17.1 °F 3.6 °F -2.0 °F 43% 30.74 in 10.0 mi North 12.7 mph - N/A   Clear
8:53 PM 17.1 °F 2.5 °F -0.0 °F 47% 30.75 in 10.0 mi North 15.0 mph - N/A   Clear
9:53 PM 15.1 °F 1.1 °F -0.0 °F 51% 30.77 in 10.0 mi North 12.7 mph - N/A   Clear
10:53 PM 12.0 °F -2.0 °F -2.0 °F 53% 30.79 in 10.0 mi NNE 11.5 mph - N/A   Clear
11:53 PM 9.0 °F 0.6 °F -2.9 °F 59% 30.79 in 10.0 mi NE 4.6 mph - N/A   Clear